Weather History for Worcester, MA

Change the Weather History Date:

Tuesday, January 22, 2013

  Actual Average Record
Temperature  
Mean Temperature 13 °F 24 °F  
Max Temperature 20 °F 31 °F 59 °F (1959)
Min Temperature 6 °F 17 °F -10 °F (1976)
Degree Days  
Heating Degree Days 52 41  
Month to date heating degree days 783 898  
Since 1 July heating degree days 2998 3402  
Cooling Degree Days 0 0  
Month to date cooling degree days 0 0  
Year to date cooling degree days 0 0  
Moisture  
Dew Point 6 °F    
Average Humidity 65    
Maximum Humidity 92    
Minimum Humidity 37    
Precipitation  
Precipitation 0.01 in 0.12 in 1.64 in (1958)
Month to date precipitation 0.65 2.47  
Year to date precipitation 0.65 2.47  
Sea Level Pressure  
Sea Level Pressure 29.83 in    
Wind  
Wind Speed 12 mph (West)    
Max Wind Speed 25 mph    
Max Gust Speed 32 mph    
Visibility 8 miles    
Events Snow    
T = Trace of Precipitation, MM = Missing Value Source: NWS Daily Summary

Daily Weather History Graph

Daily Weather History Graph

Search for Another Location

Airport:

Trip Planner

Search our weather history database for the weather conditions in past years. The results will help you decide how hot, cold, wet, or windy it might be!

Date:

Astronomy

Jan. 22, 2013 Rise Set
Actual Time 7:09 AM EST 4:49 PM EST
Civil Twilight 6:39 AM EST 5:19 PM EST
Nautical Twilight 6:04 AM EST 5:53 PM EST
Astronomical Twilight 5:31 AM EST 6:27 PM EST
Moon 1:09 PM EST (1/22) 3:29 AM EST (1/22)
Length of Visible Light 10h 40m
Length of Day
9h 39m
Waxing Gibbous, 82% of the Moon is Illuminated
Jan 22
Waxing Gibbous
Jan 26
Full
Feb 3
Last Quarter
Feb 10
New
Feb 17
First Quarter

Hourly Weather History & Observations

Time (EST) Temp. Windchill Dew Point Humidity Pressure Visibility Wind Dir Wind Speed Gust Speed Precip Events Conditions
12:54 AM 19.0 °F - 17.1 °F 92% 29.75 in 6.0 mi Calm Calm - N/A   Overcast
1:54 AM 19.0 °F 13.9 °F 17.1 °F 92% 29.76 in 8.0 mi NE 3.5 mph - N/A   Overcast
2:38 AM 17.1 °F - 15.1 °F 92% 29.71 in 7.0 mi Calm Calm - 0.00 in   Overcast
2:54 AM 18.0 °F 11.1 °F 15.1 °F 88% 29.75 in 9.0 mi WSW 4.6 mph - 0.00 in   Overcast
3:05 AM 18.0 °F 11.1 °F 16.0 °F 92% 29.70 in 1.8 mi WSW 4.6 mph - 0.00 in Snow Light Snow
3:15 AM 18.0 °F 11.1 °F 15.1 °F 88% 29.70 in 3.0 mi WSW 4.6 mph - 0.00 in Snow Light Snow
3:31 AM 18.0 °F 11.1 °F 15.1 °F 88% 29.70 in 2.0 mi West 4.6 mph - 0.00 in Snow Light Snow
3:35 AM 18.0 °F 9.8 °F 15.1 °F 88% 29.70 in 3.0 mi West 5.8 mph - 0.00 in Snow Light Snow
3:54 AM 19.0 °F 9.0 °F 15.1 °F 85% 29.75 in 5.0 mi West 8.1 mph - 0.00 in Snow Light Snow
3:58 AM 19.0 °F 8.2 °F 16.0 °F 88% 29.70 in 1.8 mi West 9.2 mph - 0.00 in Snow Light Snow
4:01 AM 19.0 °F 9.0 °F 16.0 °F 88% 29.70 in 0.8 mi West 8.1 mph - 0.00 in Snow Light Snow
4:10 AM 19.0 °F 9.0 °F 16.0 °F 88% 29.70 in 1.2 mi West 8.1 mph - 0.01 in Snow Light Snow
4:12 AM 19.0 °F 8.2 °F 16.0 °F 88% 29.70 in 3.0 mi West 9.2 mph - 0.01 in Snow Light Snow
4:24 AM 19.0 °F 6.8 °F 15.1 °F 85% 29.70 in 9.0 mi West 11.5 mph - 0.01 in   Overcast
4:38 AM 18.0 °F 4.2 °F 14.0 °F 84% 29.70 in 9.0 mi West 13.8 mph - 0.01 in Snow Light Snow
4:54 AM 18.0 °F 4.2 °F 12.9 °F 81% 29.76 in 10.0 mi WNW 13.8 mph - 0.01 in   Overcast
5:54 AM 16.0 °F 1.7 °F 10.9 °F 81% 29.79 in 10.0 mi West 13.8 mph - N/A   Partly Cloudy
6:54 AM 15.1 °F -0.6 °F 8.1 °F 74% 29.81 in 10.0 mi West 16.1 mph 25.3 mph N/A   Clear
7:54 AM 14.0 °F -2.5 °F 8.1 °F 77% 29.83 in 9.0 mi West 17.3 mph - N/A   Clear
8:54 AM 16.0 °F 0.1 °F 6.1 °F 65% 29.85 in 10.0 mi WNW 17.3 mph 29.9 mph N/A   Clear
9:54 AM 17.1 °F 2.0 °F 1.9 °F 52% 29.88 in 10.0 mi West 16.1 mph 26.5 mph N/A   Clear
10:54 AM 17.1 °F 1.5 °F -0.0 °F 47% 29.88 in 10.0 mi WNW 17.3 mph 25.3 mph N/A   Clear
11:54 AM 17.1 °F 0.6 °F -2.0 °F 43% 29.87 in 10.0 mi WNW 19.6 mph 31.1 mph N/A   Clear
12:54 PM 17.1 °F 1.5 °F -5.1 °F 37% 29.86 in 10.0 mi West 17.3 mph 31.1 mph N/A   Partly Cloudy
1:54 PM 17.1 °F 1.5 °F -6.0 °F 36% 29.86 in 10.0 mi WNW 17.3 mph 24.2 mph N/A   Partly Cloudy
2:54 PM 18.0 °F 3.1 °F -5.1 °F 36% 29.89 in 10.0 mi WNW 16.1 mph 25.3 mph N/A   Mostly Cloudy
3:54 PM 17.1 °F 3.0 °F -5.1 °F 37% 29.91 in 10.0 mi West 13.8 mph 20.7 mph N/A   Clear
4:54 PM 14.0 °F 1.2 °F -6.0 °F 41% 29.95 in 10.0 mi WNW 10.4 mph - N/A   Clear
5:54 PM 12.9 °F -0.2 °F -6.0 °F 43% 29.99 in 10.0 mi WNW 10.4 mph 19.6 mph N/A   Clear
6:54 PM 12.0 °F -1.3 °F -5.1 °F 46% 30.01 in 10.0 mi West 10.4 mph - N/A   Clear
7:54 PM 10.9 °F -2.6 °F -5.1 °F 49% 30.02 in 10.0 mi WNW 10.4 mph - N/A   Clear
8:54 PM 10.0 °F -3.7 °F -4.0 °F 53% 30.03 in 10.0 mi West 10.4 mph - N/A   Clear
9:54 PM 8.1 °F -0.5 °F -2.9 °F 61% 30.05 in 10.0 mi West 4.6 mph - N/A   Clear
10:54 PM 7.0 °F -4.5 °F -4.0 °F 61% 30.06 in 10.0 mi West 6.9 mph - N/A   Clear
11:54 PM 7.0 °F -6.6 °F -0.9 °F 70% 30.06 in 10.0 mi West 9.2 mph - N/A   Partly Cloudy